CW5629 Weather Reports


Display with metric or nautical units.
time (UTC)temp
F
wind
direction
speed
MPH
gust
MPH
rain 1hr
in
rain 24hr
in
rain mn
in
humidity
%
barometer
mb
20260505102125 60 91 0.0 3.0 0.00 0.00 0.00 67 1013.3
20260505101132 58 77 0.0 3.0 0.00 0.00 0.00 69 1013.4
20260505100124 58 78 0.0 2.0 0.00 0.00 0.00 72 1013.3
20260505095113 58 96 0.0 2.0 0.00 0.00 0.00 71 1013.3
20260505094120 58 95 0.0 4.0 0.00 0.00 0.00 74 1013.2
20260505093113 58 100 0.0 3.0 0.00 0.00 0.00 77 1013.2
20260505092121 57 82 0.0 1.0 0.00 0.00 0.00 80 1013.2
20260505091113 56 82 0.0 2.0 0.00 0.00 0.00 82 1013.3
20260505090125 55 98 0.0 2.0 0.00 0.00 0.00 84 1013.3
20260505085111 54 110 0.0 1.0 0.00 0.00 0.00 85 1013.4
20260505084121 53 113 0.0 1.0 0.00 0.00 0.00 85 1013.4
20260505083134 53 105 0.0 3.0 0.00 0.00 0.00 86 1013.4
20260505082124 53 108 0.0 2.0 0.00 0.00 0.00 86 1013.3
20260505081115 53 96 0.0 1.0 0.00 0.00 0.00 85 1013.4
20260505080149 53 94 0.0 1.0 0.00 0.00 0.00 85 1013.4
20260505075114 54 68 0.0 1.0 0.00 0.00 0.00 84 1013.3
20260505074127 54 108 0.0 1.0 0.00 0.00 0.00 84 1013.4
20260505073112 54 75 0.0 3.0 0.00 0.00 0.00 84 1013.3
20260505072124 54 109 0.0 3.0 0.00 0.00 0.00 85 1013.3
20260505071110 53 92 0.0 2.0 0.00 0.00 0.00 87 1013.3
20260505070150 53 141 0.0 2.0 0.00 0.00 0.00 88 1013.3
20260505065115 52 96 0.0 2.0 0.00 0.00 0.00 89 1013.4
20260505064128 52 154 0.0 2.0 0.00 0.00 0.00 89 1013.4
20260505063114 52 140 0.0 1.0 0.00 0.00 0.00 90 1013.3
20260505062127 52 105 0.0 1.0 0.00 0.00 0.00 90 1013.3
20260505061113 52 105 0.0 1.0 0.00 0.00 0.00 91 1013.2
20260505060127 52 76 0.0 2.0 0.00 0.00 0.00 91 1013.2
20260505055113 52 134 0.0 2.0 0.00 0.00 0.00 91 1013.2
20260505054142 52 85 0.0 1.0 0.00 0.00 0.00 91 1013.2
20260505053133 52 73 0.0 2.0 0.00 0.00 0.00 91 1013.2
20260505052123 52 103 0.0 1.0 0.00 0.00 0.00 91 1013.1
20260505051116 52 101 0.0 2.0 0.00 0.00 0.00 91 1013.1
20260505050122 52 110 0.0 1.0 0.00 0.00 0.00 91 1013.0
20260505041136 52 110 0.0 0.0 0.00 0.00 0.00 91 1013.0
20260505040121 52 109 0.0 0.0 0.00 0.00 0.00 92 1013.0
20260505035114 52 109 0.0 1.0 0.00 0.00 0.00 92 1013.0
20260505034119 52 112 0.0 0.0 0.00 0.00 0.00 92 1012.9
20260505033110 52 100 0.0 1.0 0.00 0.00 0.00 92 1012.9
20260505032122 52 96 0.0 0.0 0.00 0.00 0.00 91 1013.0
20260505031135 52 86 0.0 0.0 0.00 0.00 0.00 91 1013.0
20260505030119 52 73 0.0 0.0 0.00 0.00 0.00 91 1012.9
20260505025132 53 103 0.0 1.0 0.00 0.00 0.00 91 1012.9
20260505024121 53 103 0.0 0.0 0.00 0.00 0.00 91 1012.9
20260505023115 52 103 0.0 1.0 0.00 0.00 0.00 92 1012.9
20260505022121 52 100 0.0 1.0 0.00 0.00 0.00 92 1012.9
20260505021134 52 96 0.0 1.0 0.00 0.00 0.00 92 1013.0
20260505020123 52 91 0.0 1.0 0.00 0.00 0.00 92 1013.1
20260505015136 51 94 0.0 1.0 0.00 0.00 0.00 91 1013.1
20260505014124 51 94 0.0 0.0 0.00 0.00 0.00 90 1013.2
20260505013110 52 94 0.0 0.0 0.00 0.00 0.00 90 1013.2
20260505012143 52 94 0.0 0.0 0.00 0.00 0.00 89 1013.2
20260505011117 53 94 0.0 0.0 0.00 0.00 0.00 89 1013.3
20260505010149 53 94 0.0 1.0 0.00 0.00 0.00 89 1013.3
20260505005114 54 94 0.0 1.0 0.00 0.00 0.00 88 1013.4
20260505004123 54 116 0.0 0.0 0.00 0.00 0.00 89 1013.4
20260505003135 54 116 0.0 1.0 0.00 0.00 0.00 89 1013.5
20260505002121 54 116 0.0 0.0 0.00 0.00 0.00 89 1013.6
20260505001113 54 116 0.0 1.0 0.00 0.00 0.00 89 1013.7
20260505000127 54 117 0.0 0.0 0.00 0.00 0.00 89 1013.8
20260504235141 54 117 0.0 1.0 0.00 0.00 0.00 89 1013.8
20260504234130 54 93 0.0 1.0 0.00 0.00 0.00 89 1013.8
20260504233114 54 84 0.0 1.0 0.00 0.00 0.00 89 1013.7
20260504232143 54 75 0.0 3.0 0.00 0.00 0.00 89 1013.6
20260504231120 54 92 0.0 1.0 0.00 0.00 0.00 89 1013.5
20260504230132 55 97 0.0 2.0 0.00 0.00 0.00 90 1013.5
20260504225118 55 82 0.0 1.0 0.00 0.00 0.00 91 1013.5
20260504224131 55 118 0.0 0.0 0.00 0.00 0.00 91 1013.6
20260504223138 54 91 0.0 0.0 0.00 0.00 0.00 91 1013.7
20260504222129 54 91 0.0 0.0 0.00 0.00 0.00 91 1013.7
20260504221121 54 91 0.0 1.0 0.00 0.00 0.00 91 1013.7
20260504220123 54 85 0.0 0.0 0.00 0.00 0.00 89 1013.7
20260504215114 55 85 0.0 0.0 0.00 0.00 0.00 90 1013.7
20260504214124 55 85 0.0 0.0 0.00 0.00 0.00 89 1013.7
20260504213137 55 85 0.0 1.0 0.00 0.00 0.00 89 1013.7
20260504212123 56 85 0.0 1.0 0.00 0.00 0.00 88 1013.7
20260504211136 56 115 0.0 0.0 0.00 0.00 0.00 88 1013.7
20260504210123 56 115 0.0 0.0 0.00 0.00 0.00 87 1013.7
20260504205136 57 117 0.0 0.0 0.00 0.00 0.00 87 1013.8
20260504204121 57 117 0.0 0.0 0.00 0.00 0.00 87 1013.7
20260504203114 57 117 0.0 0.0 0.00 0.00 0.00 87 1013.7
20260504202117 57 117 0.0 1.0 0.00 0.00 0.00 86 1013.7
20260504201131 57 117 0.0 0.0 0.00 0.00 0.00 85 1013.6
20260504200117 57 136 0.0 0.0 0.00 0.00 0.00 83 1013.5
20260504195129 57 136 0.0 0.0 0.00 0.00 0.00 82 1013.5
20260504194122 58 136 0.0 1.0 0.00 0.00 0.00 82 1013.4
20260504193127 58 136 0.0 0.0 0.00 0.00 0.00 82 1013.3
20260504192119 59 113 0.0 0.0 0.00 0.00 0.00 80 1013.2
20260504191133 59 110 0.0 1.0 0.00 0.00 0.00 79 1013.2
20260504190125 60 129 0.0 0.0 0.00 0.00 0.00 78 1013.1
20260504185158 60 114 0.0 0.0 0.00 0.00 0.00 76 1013.0
20260504184123 61 109 0.0 1.0 0.00 0.00 0.00 75 1012.9
20260504183137 62 120 0.0 1.0 0.00 0.00 0.00 74 1012.9
20260504182123 63 110 0.0 2.0 0.00 0.00 0.00 72 1012.9
20260504181114 64 78 0.0 2.0 0.00 0.00 0.00 70 1012.8
20260504180127 64 115 0.0 4.0 0.00 0.00 0.00 69 1012.7
20260504175114 66 120 0.0 1.0 0.00 0.00 0.00 64 1012.7
20260504174127 67 121 0.0 1.0 0.00 0.00 0.00 54 1012.7
20260504173114 68 101 0.0 1.0 0.00 0.00 0.00 51 1012.7
20260504172127 68 89 0.0 2.0 0.00 0.00 0.00 51 1012.6
20260504171114 68 107 0.0 1.0 0.00 0.04 0.00 50 1012.8
20260504170112 68 104 0.0 1.0 0.00 0.04 0.00 49 1012.7
20260504160113 67 84 0.0 2.0 0.00 0.04 0.00 51 1012.6
20260504151122 67 95 0.0 2.0 0.00 0.04 0.00 54 1012.9
20260504150135 67 97 0.0 1.0 0.00 0.04 0.00 55 1012.9
20260504141128 67 115 0.0 3.0 0.00 0.04 0.00 62 1013.0
20260504140121 66 118 0.0 2.0 0.00 0.04 0.00 63 1013.0
20260504130144 67 128 0.0 4.0 0.00 0.04 0.00 67 1013.2
20260504120125 66 103 0.0 3.0 0.00 0.04 0.00 68 1013.2
20260504110129 66 120 0.0 1.0 0.00 0.04 0.00 68 1013.4